Chornyi Kut

Ukraine / Odesa District     47˚23′36″N   30˚27′27″E
temp.,
°C
wind,
m/s
gust,
m/s
humid.,
%
clouds,
%
prec.,
mm/h
press.,
hPa
HPBL,
m
2 december, wed
wed223:00nne35100100 0.0 1025219
02:00+1˚nne35100100 0.1 1025157
05:00+1˚nne35100100 0.0 1025205
08:00+1˚nne45100100 0.1 1025203
11:00+1˚n45100100 0.3 1026185
14:00+1˚nne35100100 0.4 1025160
17:00+1˚ene36100100 0.1 1026289
20:00+1˚ene4694100 0.1 1026268
3 december, thu
thu323:00+1˚ene3695100 0.0 1026230
02:00−1˚ene349694 0.0 102586
05:00+1˚ene4697100 0.0 1024201
08:00+1˚ene5897100 0.0 1024221
11:00+3˚e4897100 0.0 1024271
14:00+4˚ene4898100 0.0 1023260
17:00+4˚e499889 0.0 1022278
20:00+5˚ese5109689 0.1 1022272
4 december, fri
fri423:00+4˚se369857 0.1 1022136
02:00+4˚sse239672 0.1 102372
05:00+3˚ese469733 0.0 1022121
08:00+4˚ese599656 0.0 1022293
11:00+6˚ese6985100 0.0 1023451
14:00+6˚ese698892 0.0 1022464
17:00+5˚ese6990100 0.0 1022533
20:00+5˚ese61187100 0.0 1023589
5 december, sat
sat523:00+4˚ese6109096 0.0 1023488
02:00+4˚ese6109198 0.0 1024523
05:00+4˚ese6992100 0.0 1024527
08:00+3˚ese6991100 0.0 1025533
11:00+3˚ese6987100 0.0 1025541
14:00+4˚e6878100 0.0 1025557
17:00+2˚e5107945 0.0 1026420
20:00+1˚e5108631 0.0 1027453
6 december, sun
sun623:00+3˚ese5878100 0.0 1027666
02:00+2˚e6777100 0.0 1027738
05:00+1˚e5871100 0.0 1027517
08:00−1˚e6971100 0.0 1028485
11:00e6968100 0.0 1028522
14:00+2˚ese6865100 0.0 1027730
17:00ese497360 0.0 1027552
20:00e5117168 0.0 1027532